Regional Weather Roundup
Issued by NWS Green Bay, WI

Home | Current Version | Previous Version | Text Only | Print | Product List | Glossary On
Versions: 1 2 3 4 5 6 7 8 9 10 11 12 13 14 15 16 17 18 19 20 21 22 23 24 25 26 27 28 29 30 31 32 33 34 35 36 37 38 39 40 41 42 43 44 45 46 47 48 49 50
000
ASUS43 KGRB 250211
RWRGRB

NORTH-CENTRAL AND NORTHEAST WISCONSIN REGIONAL WEATHER ROUNDUP
NATIONAL WEATHER SERVICE GREEN BAY WI
900 PM CDT SAT SEP 24 2016

WIZ005-009-010>012-018-019-250300-
NORTH CENTRAL WISCONSIN

CITY           SKY/WX    TMP DP  RH WIND       PRES   REMARKS
IRONWOOD       CLOUDY    63  54  72 SE5       30.14R
MANITOWISH WTR CLEAR     58  55  89 SE6       30.17R
ARBOR VITAE    CLEAR     59  53  78 SE5       30.18R
EAGLE RIVER    MOCLDY    59  49  70 SE6       30.18S
LAND O LAKES   MOCLDY    60  50  71 SE5       30.20R
RHINELANDER    PTCLDY    58  53  84 SE5       30.19R
PHILLIPS       CLOUDY    61  56  82 E6        30.15S
ANTIGO         CLEAR     56  52  85 CALM      30.20R
TOMAHAWK       CLOUDY    57  53  86 CALM      30.19R
MERRILL        CLOUDY    61  55  78 SE6       30.19R
$$

WIZ013-073-250300-
NORTHEAST WISCONSIN

CITY           SKY/WX    TMP DP  RH WIND       PRES   REMARKS
IRON MOUNTAIN  MOCLDY    57  49  74 SE6       30.20S
MARINETTE      NOT AVBL
OCONTO         PTCLDY    55  52  92 CALM      30.20R
$$

WIZ017-030-035>037-045-250300-
CENTRAL WISCONSIN

CITY           SKY/WX    TMP DP  RH WIND       PRES   REMARKS
MEDFORD        CLOUDY    61  57  87 SE6       30.16S
WAUSAU         CLOUDY    62  52  69 SE10      30.16R
MOSINEE        CLOUDY    61  55  82 E9        30.18R
MARSHFIELD     MOCLDY    62  56  80 E7        30.15R
WISC RAPIDS    LGT RAIN  63  59  87 SE8       30.17R
STEVENS POINT  CLOUDY    61  55  79 E8        30.18R
WAUPACA        MOCLDY    63  58  84 E7        30.18S
SHAWANO        CLOUDY    62  53  74 SE3       30.20S
CLINTONVILLE   NOT AVBL
WAUTOMA        CLOUDY    63  58  83 E7        30.18R
$$

WIZ038-039-048-051-250300-
FOX VALLEY

CITY           SKY/WX    TMP DP  RH WIND       PRES   REMARKS
NWS GREEN BAY  CLOUDY    61  56  83 E6        30.20R
APPLETON       MOCLDY    61  52  72 E6        30.19R
OSHKOSH        CLOUDY    63  56  78 E7        30.18R
FOND DU LAC    CLOUDY    63  57  81 E5        30.19R
$$

WIZ022-050-052-250300-
EAST CENTRAL WISCONSIN

CITY           SKY/WX    TMP DP  RH WIND       PRES   REMARKS
EPHRAIM        FAIR      56  51  84 CALM      30.21R
WASHINGTON ISL FAIR      49  48  97 CALM      30.22R
STURGEON BAY   PTCLDY    55  52  89 CALM      30.23R
MANITOWOC      CLOUDY    58  55  90 NW5       30.21R
SHEBOYGAN      CLOUDY    62  57  83 NE3       30.19R
$$

LMZ563-521-522-541>543-250300-
LAKESHORE

STATION/POSITION TIME  TEMP    WIND        PRES    VSBY  WAVE
                       AIR SEA DIR/SP/G                  HT/PER
                 (UTC) (F)     (DEG/KT/KT) (MB)    (MI)  (FT/S)
SHEBOYGAN LKSHOR 0200   65      80/  6/  7 1022.0R
KEWAUNEE LKSHORE 0100   63     110/  6/  8 1021.6R
NORTHPORT PIER   0100   64     120/  9/ 11 1022.4R
N MID LAKE BUOY  0150   65 67  110/ 12/ 14 1022.6R         2/ 3
S GREEN BAY BUOY 0100   63 66  120/  4/  6 1021.9R
CHAMBERS ISLAND  0100   59     120/  2/  5 1022.0R
MENOMINEE LKSHOR 0100   63     100/  7/  9 1021.6R
$$




USA.gov is the U.S. government's official web portal to all federal, state and local government web resources and services.